Location: 22
(39.7117°N, 89.5929°W)
Time: 08:35:03
(UTC-05:00)

Vanguard 1 Rocket - Pass Details

Date: 10 February 2023
Orbit: 652 x 4223 km, 34.3° (Epoch: 24 March)

Event Time Altitude Azimuth Distance (km) Brightness Sun altitude
Rises 12:47:22 0° 264° (W) 4,246 11.0 35.4°
Reaches altitude 10° 12:49:39 10° 262° (W) 3,566 10.8 35.4°
Maximum altitude 12:59:11 69° 181° (S) 2,344 10.6 35.0°
Drops below altitude 10° 13:18:19 10° 104° (ESE) 6,646 11.8 33.9°
Sets 13:24:27 0° 103° (ESE) 8,055 12.1 33.5°
